TIME,DELAY(SENSOR),PRES,OXYGEN,RAWTEMP,T(OPTODE),TCPHASE,FLUOR,BETA(BETA700),BETA(BETA412),BETA(BETA440),CDOM,C(CSC),ED(ED412.40),ED(ED444.00),ED(ED489.70),ED(ED554.30),LU(LU411.80),LU(LU443.40),LU(LU489.60),LU(LU554.10),COMP,TILTX,TILTY,CHECK
1364356475,5806,848.7700195312500000,47.6197395324707000,657.8494873046875000,4.6987462043762210,53.8515205383300800,52,101,88,80,79,14884,2147750528,2147426459,2148010285,2147876900,2147640484,2147058459,2148261540,2147196425,3139,4,14,9933
1364360071,5809,916.2600097656250000,48.7151412963867200,666.2100219726562000,4.4233131408691410,53.8009986877441400,53,104,86,78,80,14879,2147755629,2147425947,2148012845,2147875200,2147639204,2147058102,2148260772,2147196662,3504,4,13,43569
1364363671,5809,927.5100097656250000,49.1241493225097660,666.4973754882812000,4.4138340950012210,53.7467308044433600,53,100,86,79,80,14878,2147754084,2147423753,2148010998,2147875428,2147640667,2147055012,2148260397,2147199744,455,4,13,18396
1364367271,5809,955.1900024414062000,49.5906105041503900,670.0637207031250000,4.2960948944091800,53.7295799255371100,53,98,86,77,80,14881,2147754560,2147423131,2148009088,2147875867,2147641389,2147057984,2148261421,2147195721,1242,4,13,50095
1364370871,5805,965.0000000000000000,49.6961898803710940,671.2432250976562000,4.2571201324462890,53.7268486022949200,53,97,86,79,80,14872,2147756205,2147426395,2148012425,2147874112,2147641993,2147054765,2148263323,2147195017,7,4,13,600
1364374471,5807,963.1900024414062000,49.5728607177734400,671.3607788085938000,4.2532348632812500,53.7429389953613300,52,99,85,78,80,14870,2147755520,2147427245,2148011190,2147873883,2147641252,2147057005,2148260388,2147196955,3586,4,13,30387
1364378071,5808,991.2600097656250000,49.5223999023437500,674.4016113281250000,4.1526870727539060,53.7890510559082000,52,98,86,79,82,14870,2147758802,2147426212,2148010797,2147873691,2147642669,2147057179,2148260918,2147197696,327,4,13,63252
1364381671,5809,997.9799804687500000,49.4775314331054700,674.2429199218750000,4.1579360961914060,53.7939796447753900,53,97,90,79,80,14870,2147759259,2147426020,2148006445,2147876013,2147641947,2147055652,2148263204,2147198747,3410,4,13,21713
1364385271,5809,996.4500122070312000,49.0960998535156250,674.1994018554688000,4.1593761444091800,53.8448104858398440,52,96,87,79,82,14870,2147758994,2147426816,2148009874,2147877165,2147642240,2147053019,2148266139,2147201216,3128,4,13,40233
1364388871,5809,997.6500244140625000,49.0877990722656250,674.1530761718750000,4.1609058380126950,53.8455200195312500,53,99,88,79,81,14870,2147757997,2147426212,2148010477,2147873673,2147641810,2147055049,2148266825,2147199707,3094,4,13,46065
1364392471,5804,1004.3900146484375000,49.6682205200195300,673.7171020507812000,4.1753292083740230,53.7656211853027340,53,97,84,79,80,14870,2147754011,2147427538,2148012809,2147872182,2147644242,2147056859,2148263478,2147193682,3577,4,13,43914
1364396071,5809,1012.3400268554688000,49.8100814819335940,672.7387084960938000,4.2076849937438965,53.7321205139160160,52,98,87,79,81,14871,2147755392,2147423972,2148011904,2147872493,2147640420,2147058413,2148262372,2147195474,2183,4,13,4229
1364399671,5807,1000.2199707031250000,49.5043106079101560,673.0051269531250000,4.1988749504089355,53.7759208679199200,52,98,83,79,81,14871,2147756662,2147426724,2148011657,2147876443,2147639378,2147057874,2148260461,2147196361,730,4,13,5929
1364403271,5808,1009.1599731445312000,49.3051490783691400,673.9882202148438000,4.1663627624511720,53.8139381408691400,52,98,87,79,81,14870,2147755090,2147422957,2148010505,2147873353,2147643949,2147058020,2148260242,2147196854,276,4,13,59068
1364406871,5806,1013.0999755859375000,49.6634788513183600,672.7407836914062000,4.2076168060302730,53.7517013549804700,52,99,90,78,79,14871,2147757650,2147424548,2148010523,2147874806,2147642752,2147056704,2148260361,2147199140,3352,4,13,49805
1364410471,5810,1012.9199829101562000,49.5310592651367200,672.6154174804688000,4.2117609977722170,53.7683792114257800,52,100,86,79,80,14867,2147756617,2147425252,2148010633,2147873490,2147641920,2147060022,2148260626,2147200027,112,4,13,51209
1364414071,5809,1012.7899780273438000,49.2967491149902340,672.0338745117188000,4.2309861183166500,53.7952804565429700,53,99,90,77,80,14869,2147754806,2147427309,2148009334,2147871954,2147643401,2147056301,2148265974,2147194560,3488,4,13,32283
1364417671,5806,1003.8900146484375000,49.5065612792968750,673.1550292968750000,4.1939182281494140,53.7800102233886700,53,99,86,78,81,14869,2147756315,2147425389,2148011556,2147874761,2147643236,2147061458,2148260617,2147199853,3250,4,13,10960
1364421271,5810,1006.6199951171875000,48.8677902221679700,673.6046752929688000,4.1790471076965330,53.8697204589843750,52,97,88,79,81,14865,2147757403,2147424630,2148009609,2147873508,2147642953,2147058285,2148262701,2147197101,355,4,13,38348
1364424871,5810,1007.3499755859375000,48.8750495910644500,674.1970825195312000,4.1594510078430180,53.8826217651367200,52,98,86,79,81,14865,2147757705,2147426084,2148008310,2147876507,2147643593,2147058880,2148257490,2147199323,514,4,13,16415
1364428471,5809,1004.2500000000000000,49.1942100524902340,674.5756835937500000,4.1469268798828125,53.8419609069824200,52,99,85,78,80,14863,2147755867,2147424384,2148010395,2147874011,2147641499,2147061741,2148265069,2147195629,3454,4,13,43553
1364432071,5809,998.5599975585938000,50.3846511840820300,676.5863037109375000,4.0803790092468260,53.7041206359863300,52,97,84,78,80,14862,2147757494,2147430208,2148012333,2147878473,2147641453,2147056036,2148265206,2147194294,2991,4,13,37644
1364435671,5810,1009.2399902343750000,49.7712898254394500,675.8894042968750000,4.1034507751464840,53.7735900878906250,51,101,88,78,81,14863,2147758665,2147425216,2148011693,2147877833,2147642048,2147056886,2148265115,2147196800,927,4,13,32769
1364439271,5808,1014.3300170898438000,48.9723205566406250,674.1564941406250000,4.1607952117919920,53.8668899536132800,52,98,85,79,80,14862,2147754870,2147428333,2148010624,2147876754,2147643638,2147057362,2148263881,2147200018,3538,4,13,11870
1364442871,5809,1014.4600219726562000,49.2405014038085940,673.6386108398438000,4.1779251098632810,53.8177604675293000,52,105,86,78,81,14860,2147755867,2147426413,2148011620,2147872475,2147639350,2147055049,2148263652,2147194934,360,4,13,6747
1364446471,5810,1012.2600097656250000,49.6677284240722660,673.1359863281250000,4.1945481300354000,53.7533493041992200,51,98,86,78,81,14861,2147757906,2147424548,2148011904,2147879460,2147642112,2147055725,2148265947,2147197238,519,4,13,4624
1364450071,5807,1009.0200195312500000,49.2355003356933600,673.7653808593750000,4.1737332344055180,53.8243103027343750,53,97,83,79,80,14858,2147756626,2147427766,2148011958,2147876233,2147639670,2147059712,2148261622,2147197248,985,4,13,32565
1364453671,5807,1022.9400024414062000,49.6622085571289060,671.5861206054688000,4.2457900047302250,53.7401008605957000,52,96,88,80,81,14860,2147758308,2147427053,2148009472,2147877540,2147641051,2147057865,2148261659,2147197266,42,4,13,56027
1364457271,5807,1019.0800170898438000,48.9478797912597660,670.9364013671875000,4.2672600746154785,53.8255615234375000,52,100,89,79,80,14860,2147754587,2147425472,2148007424,2147875300,2147640365,2147060187,2148258770,2147197403,195,4,13,54156
1364460871,5805,1011.4699707031250000,49.2457008361816400,673.4019165039062000,4.1857571601867680,53.8155593872070300,53,97,84,79,81,14860,2147756169,2147426148,2148013458,2147876086,2147641389,2147061065,2148261056,2147195529,3404,4,13,41394
1364464471,5809,1006.5599975585938000,48.9674606323242200,674.6428222656250000,4.1447048187255860,53.8742218017578100,53,98,81,79,81,14860,2147757110,2147425417,2148008301,2147873069,2147641234,2147058340,2148264859,2147193563,3528,4,13,58590
1364468071,5809,1007.8400268554688000,49.8432807922363300,675.6765747070312000,4.1104969978332520,53.7627983093261700,52,98,84,79,81,14859,2147759369,2147424137,2148013238,2147876178,2147641261,2147053467,2148263588,2147195995,2985,4,13,53174
1364471671,5807,1000.5399780273438000,50.6370582580566400,676.3757934570312000,4.0873489379882810,53.6659317016601560,52,99,89,78,81,14859,2147753234,2147427675,2148012406,2147874870,2147638966,2147052041,2148268571,2147195968,310,4,13,32193
1364475271,5809,1008.0999755859375000,50.9403381347656250,676.2119750976562000,4.0927720069885250,53.6199607849121100,52,99,87,79,80,14861,2147760100,2147423113,2148015634,2147877321,2147639917,2147058678,2148261165,2147192402,308,4,13,41514
1364478871,5806,1011.1699829101562000,50.8356895446777340,676.2974243164062000,4.0899472236633300,53.6330718994140600,53,98,86,79,80,14858,2147759387,2147426139,2148011922,2147877805,2147643264,2147059200,2148266934,2147194907,10,4,13,561
1364482471,5807,1008.8699951171875000,50.6824989318847660,676.2437133789062000,4.0917239189147950,53.6580505371093750,53,99,89,79,80,14859,2147759186,2147426925,2148009353,2147874212,2147642230,2147059446,2148259456,2147194020,3498,4,13,35664
1364486071,5810,1016.3099975585938000,50.0493011474609400,675.5889282226562000,4.1133980751037600,53.7314300537109400,53,98,87,79,81,14858,2147757001,2147427675,2148009334,2147876443,2147643666,2147060928,2148264448,2147195766,98,4,13,40621
1364489671,5803,1012.7299804687500000,48.7428207397460940,674.6090698242188000,4.1458230018615720,53.9068908691406250,52,99,88,79,80,14855,2147756361,2147425554,2148010825,2147877549,2147640137,2147049508,2148260059,2147194395,488,4,13,30206
1364493271,5807,1016.3499755859375000,48.6403694152832000,674.7894897460938000,4.1398530006408690,53.9204711914062500,52,100,83,80,81,14852,2147758262,2147424539,2148013558,2147873728,2147641590,2147053961,2148262034,2147197238,314,4,13,38374
1364496871,5811,1017.1500244140625000,48.9533195495605500,674.8911132812500000,4.1364917755126950,53.8759193420410160,53,103,86,79,79,14857,2147758418,2147424731,2148012635,2147877156,2147640905,2147056996,2148265024,2147199168,66,4,13,60119
1364500471,5808,1023.1099853515625000,49.1100692749023440,674.2072753906250000,4.1591129302978520,53.8429183959960940,53,98,88,78,80,14851,2147757622,2147422912,2148012032,2147875684,2147639268,2147055168,2148263917,2147195757,208,4,13,36821
1364501455,5810,1027.5600585937500000,49.1736488342285160,673.5626831054688000,4.1804370880126950,53.8279304504394500,52,99,89,79,81,14861,2147758939,2147426742,2148013915,2147875538,2147643236,2147061074,2148265417,2147197001,2181,4,13,54095
